Location: Killam
(52.7910°N, 111.8608°W)
Time: 09:57:57
(UTC+00:00)

SR - Pass Details

Date: 23 February 2026
Orbit: 573 x 848 km, 66.7° (Epoch: 7 March)

Event Time Altitude Azimuth Distance (km) Brightness Sun altitude
Exits shadow 13:23:07 13° 293° (WNW) 1,823 ? -10.4°
Maximum altitude 13:25:58 21° 337° (NNW) 1,436 ? -9.9°
Drops below altitude 10° 13:29:34 10° 27° (NNE) 2,099 ? -9.4°
Sets 13:32:30 0° 44° (NE) 3,073 ? -9.0°
